Overview Statistics Trail Chart Weather Telemetry Raw packets
 

This is the latest recevied weather packets stored in our database for station/object W1HVD. If no packets are shown the sender has not sent any weather packets the latest 10 day(s).

<< 54 55 56 57 58 59 60 >>
Time Temp. Humidity Pressure Rain* Wind** Luminosity Snow
1777311224 17.78° C 43% 1024.3 hPa 0 mm - 716 W/m² -
1777310922 17.22° C 45% 1024.4 hPa 0 mm - 721 W/m² -
1777310620 17.78° C 40% 1024.4 hPa 0 mm - 724 W/m² -
1777310317 17.22° C 42% 1024.6 hPa 0 mm - 728 W/m² -
1777310014 17.78° C 39% 1024.5 hPa 0 mm - 732 W/m² -
1777309712 16.67° C 45% 1024.6 hPa 0 mm - 735 W/m² -
1777309409 17.22° C 42% 1024.6 hPa 0 mm - 736 W/m² -
1777309107 16.67° C 43% 1024.5 hPa 0 mm - 739 W/m² -
1777308804 16.67° C 42% 1024.7 hPa 0 mm - 740 W/m² -
1777308499 17.22° C 43% 1024.6 hPa 0 mm - 741 W/m² -
1777308195 16.67° C 45% 1024.7 hPa 0 mm - 742 W/m² -
1777307890 17.22° C 43% 1025 hPa 0 mm - 743 W/m² -
1777307590 17.78° C 42% 1024.8 hPa 0 mm - 744 W/m² -
1777307286 17.22° C 48% 1024.5 hPa 0 mm - 743 W/m² -
1777306983 17.22° C 44% 1024.6 hPa 0 mm - 743 W/m² -
1777306681 17.22° C 48% 1024.6 hPa 0 mm - 741 W/m² -
1777306377 16.11° C 44% 1024.6 hPa 0 mm - 741 W/m² -
1777306071 16.67° C 44% 1024.8 hPa 0 mm - 740 W/m² -
1777305768 16.11° C 46% 1024.8 hPa 0 mm - 738 W/m² -
1777305464 16.67° C 45% 1024.8 hPa 0 mm - 736 W/m² -
1777305164 16.67° C 45% 1024.9 hPa 0 mm - 732 W/m² -
1777304859 16.11° C 45% 1025 hPa 0 mm - 730 W/m² -
1777304557 16.67° C 49% 1024.9 hPa 0 mm - 727 W/m² -
1777304253 15.56° C 46% 1024.9 hPa 0 mm - 724 W/m² -
1777303951 16.11° C 45% 1025.1 hPa 0 mm - 720 W/m² -

* Rain latest hour (hover to see other rain measurements)
** Current wind speed in m/s (hover to see current wind gust speed)